[[{"header":{"parameterUnit":"m.s-1","parameterCategory":1,"la1":30.2991,"la2":30.254,"lo1":-89.0895,"lo2":-89.0444,"dy":0.0017,"dx":0.0017,"nx":28,"ny":28,"refTime":"2025-03-25T03:00:00:Z","depth":0,"parameterNumber":2,"parameterNumberName":"U-component_of_WINDS"},"data":[0,0,0,0,0,0,0,0,0,0,0,0,0,0,0,0,0,0,0,0,0,0,0,0,0,0,0,0,0,0,0,0,0,0,0,0,0,0,0,0,0,0,0,0,0,0,0,0,0,0,0,0,0,0,0,0,0,0,-1.1278,-1.1277,0,-1.1192,-1.1191,-1.119,-1.1091,-1.1089,-1.1088,-1.1086,-1.0999,-1.0998,-1.0997,0,0,0,0,0,0,0,0,0,0,0,0,0,-1.1357,-1.1356,-1.1278,-1.1277,-1.1276,-1.1193,-1.1191,-1.119,-1.1091,-1.1089,-1.1087,-1.1086,-1.0999,-1.0998,-1.0997,0,0,0,0,0,0,0,0,0,0,0,0,0,-1.1303,-1.1356,-1.1279,-1.1217,-1.121,-1.1193,-1.1191,-1.119,-1.1091,-1.1089,-1.1087,-1.1085,-1.0999,-1.0998,-1.0997,-1.1033,0,0,-1.0992,-1.0992,0,0,0,0,0,0,0,0,-1.1306,-1.13,-1.1227,-1.1221,-1.1214,-1.115,-1.1187,-1.1137,-1.1092,-1.1137,-1.1086,-1.1084,-1.1051,-1.1045,-1.1034,-1.1029,-1.1025,-1.0992,-1.0991,-1.0991,-1.099,0,0,0,0,0,0,0,-1.131,-1.1303,-1.1244,-1.1226,-1.1218,-1.1193,-1.1183,-1.1177,-1.1107,-1.1132,-1.1125,-1.1116,-1.1047,-1.1036,-1.1031,-1.1024,-1.0992,-1.0991,-1.099,-1.099,-1.1046,-1.1048,0,0,0,0,0,0,-1.1323,-1.1307,-1.1247,-1.1242,-1.1255,-1.1194,-1.1182,-1.1173,-1.1107,-1.1095,-1.1118,-1.1112,-1.1039,-1.1033,-1.1028,-1.1066,-1.0991,-1.0989,-1.0989,-1.1044,-1.1046,-1.1049,0,0,0,0,0,0,-1.1325,-1.1318,-1.125,-1.1272,-1.1262,-1.1195,-1.1185,-1.1172,-1.1161,-1.1096,-1.1084,-1.1119,-1.1037,-1.103,-1.1033,-1.1062,-1.0989,-1.0988,-1.1041,-1.1044,-1.1048,-1.1145,0,0,0,0,0,0,-1.1328,-1.132,-1.1333,-1.1273,-1.1261,-1.1257,-1.1187,-1.1172,-1.1159,-1.1149,-1.1094,-1.1083,-1.1035,-1.1035,-1.1031,-1.1059,-1.0986,-1.1038,-1.1042,-1.1047,-1.1139,-1.1151,-1.1162,0,0,0,0,0,-1.1331,-1.1363,-1.1334,-1.1327,-1.1276,-1.1259,-1.1252,-1.1196,-1.1161,-1.1174,-1.1133,-1.1085,-1.106,-1.1037,-1.1031,-1.1059,-1.1036,-1.1041,-1.1046,-1.1133,-1.1149,-1.1162,0,0,0,0,0,0,-1.1428,-1.1354,-1.1321,-1.1335,-1.1304,-1.1242,-1.1256,-1.1213,-1.1191,-1.1184,-1.1115,-1.1104,-1.1115,-1.1087,-1.1063,-1.1091,-1.1041,-1.1045,-1.1109,-1.1123,-1.1134,-1.1141,-1.0985,0,0,0,0,0,-1.1451,-1.1443,-1.1379,-1.1398,-1.1384,-1.1324,-1.1314,-1.1274,-1.1238,-1.1225,-1.1184,-1.1152,-1.1137,-1.1128,-1.1111,-1.1134,-1.1121,-1.1151,-1.1163,-1.1172,-1.1177,-1.1188,-1.1201,-1.1066,-1.1066,-1.1066,0,0,-1.1498,-1.1457,-1.1456,-1.1417,-1.1388,-1.1382,-1.1313,-1.1309,-1.1304,-1.1224,-1.1225,-1.1194,-1.1154,-1.1168,-1.1171,-1.1144,-1.1211,-1.1179,-1.1187,-1.1186,-1.1195,-1.1208,-1.1219,-1.107,-1.1069,-1.1068,0,0,-1.1582,-1.155,-1.1562,-1.1535,-1.1492,-1.1452,-1.1455,-1.14,-1.1376,-1.1376,-1.1316,-1.1309,-1.1285,-1.1259,-1.1242,-1.1318,-1.1273,-1.1314,-1.1375,-1.1386,-1.1397,-1.1406,-1.1433,-1.1444,-1.1319,-1.1319,-1.1319,0,-1.1646,-1.1634,-1.1574,-1.1574,-1.1559,-1.1487,-1.1499,-1.1476,-1.143,-1.1421,-1.1392,-1.136,-1.1328,-1.1335,-1.1353,-1.1342,-1.1344,-1.132,-1.14,-1.1409,-1.1416,-1.1442,-1.1452,-1.1324,-1.1324,-1.1323,-1.1323,0,-1.1716,-1.1709,-1.1724,-1.1682,-1.1668,-1.1675,-1.1616,-1.1609,-1.1571,-1.1533,-1.1534,-1.1494,-1.1467,-1.1466,-1.1428,-1.1468,-1.1452,-1.1413,-1.1361,-1.1435,-1.1458,-1.1467,-1.1332,-1.133,-1.1329,-1.1327,0,0,-1.1856,-1.1782,-1.1789,-1.1769,-1.1717,-1.1711,-1.1715,-1.1689,-1.1685,-1.1656,-1.1658,-1.1639,-1.1602,-1.1584,-1.1543,-1.1553,-1.1616,-1.1512,-1.151,-1.1533,-1.1658,-1.1689,-1.1701,-1.1586,-1.1588,-1.1589,-1.1662,0,-1.1931,-1.1932,-1.1879,-1.1896,-1.1889,-1.1821,-1.1824,-1.1793,-1.1759,-1.1749,-1.1711,-1.1699,-1.1651,-1.164,-1.1647,-1.1607,-1.164,-1.1601,-1.1587,-1.1588,-1.1599,-1.1713,-1.1744,-1.1815,-1.167,-1.1672,-1.1673,0,-1.2017,-1.1993,-1.201,-1.1958,-1.1953,-1.1957,-1.193,-1.1921,-1.1885,-1.1859,-1.184,-1.1793,-1.1793,-1.1744,-1.1744,-1.1719,-1.171,-1.169,-1.1692,-1.1688,-1.1635,-1.1712,-1.1836,-1.1847,-1.1686,-1.1685,-1.1684,0,-1.2118,-1.2091,-1.2097,-1.2083,-1.2023,-1.2027,-1.2003,-1.1964,-1.1953,-1.1929,-1.1921,-1.1898,-1.1885,-1.1868,-1.1817,-1.1786,-1.1823,-1.177,-1.1802,-1.1804,-1.1813,-1.1813,-1.1937,-1.1808,-1.1808,-1.1808,-1.1807,0,-1.2206,-1.2219,-1.2142,-1.2146,-1.2159,-1.2098,-1.2112,-1.2081,-1.2047,-1.2044,-1.1985,-1.1983,-1.1915,-1.1906,-1.1866,-1.1873,-1.1867,-1.1847,-1.1836,-1.1852,-1.1855,-1.1845,-1.1839,-1.181,-1.181,-1.1809,-1.1809,0,-1.2321,-1.227,-1.2273,-1.2217,-1.2203,-1.2215,-1.2167,-1.2168,-1.2131,-1.2128,-1.2124,-1.2065,-1.2052,-1.1999,-1.1972,-1.1945,-1.1965,-1.1944,-1.1978,-1.1971,-1.2006,-1.2004,-1.2128,-1.2142,-1.2005,-1.2006,-1.2007,0,-1.2381,-1.2389,-1.2334,-1.2328,-1.2306,-1.2297,-1.2285,-1.2226,-1.2216,-1.2176,-1.2183,-1.2165,-1.2147,-1.2129,-1.2084,-1.2064,-1.2042,-1.2087,-1.2038,-1.2055,-1.2043,-1.2043,-1.2044,-1.2098,-1.2099,-1.2101,-1.2102,0,-1.2492,-1.2467,-1.2452,-1.2429,-1.2416,-1.2395,-1.237,-1.2368,-1.2303,-1.2295,-1.228,-1.2267,-1.224,-1.2223,-1.2196,-1.2171,-1.2126,-1.2118,-1.2124,-1.2141,-1.216,-1.2151,-1.2006,-1.2115,-1.2114,-1.2113,-1.2112,-1.2112,-1.2581,-1.2585,-1.2548,-1.2533,-1.2509,-1.2487,-1.2486,-1.2449,-1.2436,-1.241,-1.2376,-1.2367,-1.2332,-1.229,-1.2269,-1.2261,-1.2236,-1.2245,-1.2247,-1.2251,-1.2259,-1.2162,-1.2256,-1.2255,-1.2255,-1.2254,-1.2254,0,-1.2689,-1.2662,-1.2649,-1.2617,-1.2606,-1.2565,-1.2536,-1.2529,-1.2522,-1.2493,-1.2477,-1.2461,-1.2445,-1.24,-1.2379,-1.2381,-1.236,-1.2378,-1.2377,-1.2372,-1.2282,-1.2279,-1.2395,-1.2395,-1.2395,-1.2395,-1.2395,-1.2395,-1.2744,-1.275,-1.272,-1.2714,-1.2686,-1.2676,-1.2664,-1.2644,-1.262,-1.2606,-1.2592,-1.2562,-1.2527,-1.2504,-1.2487,-1.2474,-1.2469,-1.2494,-1.2475,-1.2392,-1.2378,-1.2365,-1.2362,-1.2493,-1.2494,-1.2565,-1.2565,-1.2566]},{"header":{"parameterUnit":"m.s-1","parameterCategory":1,"la1":30.2991,"la2":30.254,"lo1":-89.0895,"lo2":-89.0444,"dy":0.0017,"dx":0.0017,"nx":28,"ny":28,"refTime":"2025-03-25T03:00:00:Z","depth":0,"parameterNumber":3,"parameterNumberName":"V-component_of_WINDS"},"data":[0,0,0,0,0,0,0,0,0,0,0,0,0,0,0,0,0,0,0,0,0,0,0,0,0,0,0,0,0,0,0,0,0,0,0,0,0,0,0,0,0,0,0,0,0,0,0,0,0,0,0,0,0,0,0,0,0,0,-0.1265,-0.1266,0,-0.1373,-0.1374,-0.1375,-0.1389,-0.1388,-0.1387,-0.1386,-0.1504,-0.1508,-0.1513,0,0,0,0,0,0,0,0,0,0,0,0,0,-0.1078,-0.1081,-0.1265,-0.1266,-0.1268,-0.1373,-0.1374,-0.1376,-0.1389,-0.1388,-0.1386,-0.1385,-0.1503,-0.1508,-0.1513,0,0,0,0,0,0,0,0,0,0,0,0,0,-0.117,-0.1082,-0.1265,-0.1287,-0.129,-0.1372,-0.1374,-0.1376,-0.1389,-0.1388,-0.1386,-0.1385,-0.1501,-0.1507,-0.1514,-0.1584,0,0,-0.1533,-0.1535,0,0,0,0,0,0,0,0,-0.1165,-0.1177,-0.1282,-0.1285,-0.1289,-0.1365,-0.1352,-0.1446,-0.139,-0.1352,-0.1386,-0.1384,-0.146,-0.147,-0.1494,-0.159,-0.1595,-0.1533,-0.1537,-0.154,-0.1541,0,0,0,0,0,0,0,-0.1158,-0.1172,-0.1308,-0.1284,-0.1288,-0.1294,-0.1305,-0.137,-0.1414,-0.1355,-0.1356,-0.1368,-0.1462,-0.1488,-0.1497,-0.1597,-0.1533,-0.1539,-0.1542,-0.1545,-0.1757,-0.1759,0,0,0,0,0,0,-0.1147,-0.1167,-0.1304,-0.1311,-0.1221,-0.1298,-0.1311,-0.1343,-0.1413,-0.1422,-0.137,-0.1368,-0.1478,-0.1489,-0.1501,-0.1589,-0.154,-0.1546,-0.1549,-0.1755,-0.1757,-0.176,0,0,0,0,0,0,-0.1143,-0.1159,-0.13,-0.1239,-0.1258,-0.1303,-0.1339,-0.1346,-0.1372,-0.1424,-0.1433,-0.1387,-0.1477,-0.1492,-0.1563,-0.1593,-0.1548,-0.1554,-0.1753,-0.1756,-0.1759,-0.1765,0,0,0,0,0,0,-0.1137,-0.1157,-0.1183,-0.124,-0.1261,-0.1358,-0.1341,-0.1349,-0.1381,-0.1381,-0.1443,-0.1452,-0.1477,-0.1554,-0.1569,-0.1601,-0.1559,-0.1751,-0.1754,-0.1758,-0.1763,-0.1768,-0.1773,0,0,0,0,0,-0.113,-0.1182,-0.1184,-0.1201,-0.1293,-0.136,-0.1373,-0.1398,-0.1384,-0.1411,-0.1445,-0.145,-0.1587,-0.1561,-0.1578,-0.1613,-0.1749,-0.1753,-0.1757,-0.176,-0.1767,-0.1772,0,0,0,0,0,0,-0.1132,-0.119,-0.1193,-0.1264,-0.1307,-0.1362,-0.1398,-0.1404,-0.1453,-0.1451,-0.1483,-0.1497,-0.1567,-0.1597,-0.1566,-0.1685,-0.1667,-0.1675,-0.1663,-0.167,-0.1675,-0.1667,-0.1564,0,0,0,0,0,-0.1139,-0.1186,-0.1236,-0.1294,-0.1315,-0.1352,-0.1382,-0.1397,-0.1444,-0.1463,-0.1502,-0.1549,-0.1602,-0.1637,-0.169,-0.1766,-0.1781,-0.1798,-0.1803,-0.1807,-0.1815,-0.1858,-0.1867,-0.1774,-0.1773,-0.1773,0,0,-0.1158,-0.1195,-0.1224,-0.1295,-0.133,-0.138,-0.1368,-0.1421,-0.1459,-0.1472,-0.1541,-0.1571,-0.1626,-0.17,-0.1734,-0.1727,-0.1843,-0.1813,-0.1815,-0.1821,-0.1864,-0.1873,-0.188,-0.1776,-0.1776,-0.1775,0,0,-0.1216,-0.1248,-0.1301,-0.1335,-0.1386,-0.1411,-0.1423,-0.1477,-0.1497,-0.1566,-0.1576,-0.1623,-0.1714,-0.1753,-0.1785,-0.1856,-0.1864,-0.1872,-0.19,-0.1942,-0.1949,-0.1956,-0.1983,-0.1992,-0.1879,-0.1879,-0.1879,0,-0.1234,-0.1306,-0.1328,-0.138,-0.1412,-0.1422,-0.1477,-0.151,-0.1577,-0.16,-0.1589,-0.1704,-0.1741,-0.1825,-0.1842,-0.1867,-0.1884,-0.1867,-0.1946,-0.1953,-0.196,-0.1986,-0.1996,-0.188,-0.188,-0.188,-0.1879,0,-0.1326,-0.1376,-0.1412,-0.1474,-0.1509,-0.1563,-0.1594,-0.1628,-0.164,-0.1666,-0.1737,-0.1781,-0.1843,-0.1864,-0.1877,-0.195,-0.1943,-0.1939,-0.1922,-0.1969,-0.1994,-0.2005,-0.1881,-0.1881,-0.188,-0.188,0,0,-0.1391,-0.1461,-0.1474,-0.1502,-0.1559,-0.16,-0.1654,-0.1711,-0.174,-0.1786,-0.1834,-0.191,-0.1906,-0.1941,-0.1959,-0.1995,-0.2051,-0.1987,-0.1989,-0.1999,-0.2136,-0.2141,-0.2152,-0.2055,-0.2057,-0.2058,-0.2132,0,-0.1458,-0.1552,-0.1572,-0.1654,-0.1702,-0.1711,-0.1759,-0.18,-0.1826,-0.1872,-0.1901,-0.1955,-0.1944,-0.1966,-0.2002,-0.2036,-0.2079,-0.2031,-0.2103,-0.2105,-0.2091,-0.2165,-0.217,-0.2238,-0.2142,-0.2144,-0.2145,0,-0.1549,-0.1593,-0.1679,-0.1729,-0.175,-0.1792,-0.1846,-0.1889,-0.1937,-0.1953,-0.1991,-0.2004,-0.2063,-0.2041,-0.2124,-0.2091,-0.2121,-0.2142,-0.2145,-0.2155,-0.213,-0.2179,-0.226,-0.2271,-0.216,-0.2159,-0.2158,0,-0.159,-0.1671,-0.1734,-0.1757,-0.1816,-0.1846,-0.1872,-0.1917,-0.195,-0.1998,-0.202,-0.2075,-0.2106,-0.2149,-0.2178,-0.2158,-0.2259,-0.2239,-0.2277,-0.2276,-0.23,-0.2299,-0.2389,-0.2315,-0.2315,-0.2315,-0.2315,0,-0.1664,-0.1717,-0.1753,-0.1791,-0.1851,-0.1874,-0.1934,-0.1961,-0.2001,-0.2047,-0.2058,-0.2102,-0.2135,-0.2184,-0.2206,-0.2273,-0.2286,-0.2303,-0.2309,-0.2303,-0.2301,-0.2326,-0.2323,-0.2318,-0.2317,-0.2317,-0.2316,0,-0.1721,-0.1747,-0.1816,-0.1864,-0.1878,-0.192,-0.1964,-0.2003,-0.2027,-0.2085,-0.21,-0.214,-0.2198,-0.2229,-0.2302,-0.2317,-0.2392,-0.2395,-0.2376,-0.2379,-0.2416,-0.2413,-0.2527,-0.2544,-0.2456,-0.2457,-0.2458,0,-0.1768,-0.1808,-0.1861,-0.1891,-0.1917,-0.1965,-0.1998,-0.2022,-0.2056,-0.2112,-0.2145,-0.2203,-0.225,-0.2342,-0.238,-0.2436,-0.2441,-0.2477,-0.245,-0.2443,-0.2445,-0.2443,-0.2448,-0.2483,-0.2484,-0.2484,-0.2485,0,-0.1849,-0.1859,-0.1904,-0.1954,-0.1992,-0.2033,-0.2074,-0.2099,-0.213,-0.2168,-0.2225,-0.2262,-0.2335,-0.2393,-0.2452,-0.2482,-0.249,-0.2492,-0.2505,-0.2501,-0.2489,-0.2498,-0.2391,-0.2491,-0.249,-0.249,-0.2489,-0.2489,-0.1904,-0.194,-0.1982,-0.2033,-0.2065,-0.2103,-0.2142,-0.217,-0.2217,-0.2277,-0.2288,-0.2349,-0.2396,-0.2475,-0.2507,-0.2557,-0.255,-0.2567,-0.2572,-0.2577,-0.2579,-0.2478,-0.2567,-0.2567,-0.2567,-0.2567,-0.2567,0,-0.1987,-0.2014,-0.2059,-0.2115,-0.2155,-0.2154,-0.2199,-0.2234,-0.2286,-0.2328,-0.2373,-0.244,-0.2496,-0.2536,-0.2593,-0.2626,-0.2631,-0.264,-0.264,-0.2647,-0.2581,-0.2566,-0.2635,-0.2635,-0.2635,-0.2635,-0.2635,-0.2635,-0.2035,-0.2097,-0.2112,-0.2191,-0.2218,-0.2276,-0.2302,-0.2338,-0.2371,-0.2443,-0.2489,-0.2513,-0.2555,-0.2615,-0.2667,-0.2678,-0.27,-0.2709,-0.2721,-0.2659,-0.2652,-0.2645,-0.2631,-0.2713,-0.2713,-0.2783,-0.2784,-0.2784]}]]